Location: Unspecified
(0.0000°N, 0.0000°E)
Time: 12:39:52
(UTC+00:00)

STARLINK-32312 - Visible Passes

Search period start: 20 July 2025 00:00
Search period end: 30 July 2025 00:00
Orbit: 474 x 476 km, 53.2° (Epoch: 20 July)

Date Brightness Start Highest point End Pass type
(mag) Time Alt. Az. Time Alt. Az. Time Alt. Az.
26 Jul 5.4 19:37:14 10° N 19:38:37 17° NNE 19:38:37 17° NNE visible
27 Jul 5.0 19:08:06 10° NNE 19:10:40 18° NE 19:10:53 18° ENE visible
28 Jul 5.3 18:39:07 10° NNE 18:41:10 14° NE 18:43:15 10° E visible
28 Jul 6.1 20:16:00 10° WNW 20:17:24 17° W 20:17:24 17° W visible
29 Jul 5.0 19:46:14 10° WNW 19:49:23 27° SW 19:49:50 26° SW visible
